Showing default

DB-SKYFORGE CORE-TU, 68445

Orbit data source: Space-Track

DB-SKYFORGE CORE-TU, 68445 is a payload satellite owned by NearSpaceLaunch (US) in SSO that was launched on Mon, 30 Mar 2026 UTC via an FALCON 9 launch vehicle from the Air Force Western Test Range (AFWTR). Payload-class satellites include a variety of spacecraft equipped with specific instruments for various scientific and technological missions. These include communications satellites like Starlink; space stations such as the ISS; scientific satellites like the Hubble; Earth observation satellites from companies like Planet Labs, Umbra, and HawkEye 360; GPS; miniature CubeSats for education and research; and military/defense satellites.

Loading next visibility...
Identifier
68445, 2026-067AF
Orbit
SSO
Country
Flag of USUS
Related business
Manufacturer
NearSpaceLaunch
Mission
Operational Commercial Technology
Bus & Motor
THINSAT 0.5U, Unknown motor
Mass
0.5 kg wet, 0.5 kg dry
Launch date (UTC)
2026-03-30 (6 months ago)
Launch vehicle
FALCON 9
Launch site
Air Force Western Test Range (AFWTR)
Object type
Payload
Rocket body
Debris
Shape & HBR
Box + 2 Pan, 0.2 m
Radar Cross Section
0.017 m², Medium (>0.1 m² and < 1m²)

Expand to show TLE details & history
Last TLE update: 16 hours ago

TLE from 16 hours ago
0 DB-SKYFORGE CORE-TU
1 68445U 26067AF  26263.39465767  .00002615  00000-0  13191-3 0  9996
2 68445  97.4632 220.2938 0006760 102.0924 258.1068 15.17997466 26376
Epoch: 2026-09-20T09:28Z
TLE epoch observation values (Epoch: 2026-09-20T09:28:18.422Z)
Latitude
-0°
Longitude
78.92758°
Altitude
515.943 km
Speed
7.605 km/s
True Right ascension
14h 41m 10s
True Declination
0° 00' 00"
Sunlit
Object was in daylight at epoch
Visualization orbit readout
Latitude
Unknown
Longitude
Unknown
Altitude
Unknown
Speed
Unknown
Apparent Right ascension
Unknown
Apparent Declination
Unknown
Sunlit
N/A
Visualization observer readout
Local Sidereal Time
18:01:14
Azimuth
Unknown
Elevation
Unknown
Doppler factor
Unknown
Orbital elements
Apogee altitude
513.52 km
Perigee altitude
504.209 km
Semi-major axis
6,887.001 km
Eccentricity
0.00068
Inclination
97.4632°
RAAN
220.2938°
Arg. of periapsis
102.0924°
True anomaly
258.03101°
Mean anomaly
258.1068°
Eccentric anomaly
258.0689°
Mean motion
3.7975 °/min
Orbital period
94.8 mins
BSTAR
0.00013191
Loading maneuver chart data...
Computing Atmospheric mass density...
Loading historical data...
Loading historical data...
Loading historical data...
Loading historical data...
Loading historical data...
Loading historical data...
Loading historical data...

Documentation

Showing up to 5 results
|